User: anonymous   Login
Location: Unspecified
(0.0000°N, 0.0000°E)
Time: 18:47:09
(UTC+00:00)
Language:

Safir 2 - Orbit

View from above orbital plane
View from above orbital plane
View from above satellite
View from above satellite

Ground track
Ground track

The orbit data is extracted from the following two-line orbital elements,

1 25399U 98043F   17145.90820549 -.00000006 +00000-0 +16028-4 0  9995
2 25399 098.5744 090.5254 0001911 021.4398 338.6861 14.24582603980862
Epoch (UTC): 25 May 2017 21:47:48
Eccentricity: 0.0001911
inclination: 98.5744°
perigee height: 808 km
apogee height: 811 km
right ascension of ascending node: 90.5254°
argument of perigee: 21.4398°
revolutions per day: 14.24582603
mean anomaly at epoch: 338.6861°
orbit number at epoch: 98086

The dashed part of the orbit path shows where the satellite is in the earth's shadow,  

DLR